Regional Weather Roundup
Issued by NWS

Home | Current Version | Previous Version | Graphics & Text | Print | Product List | Glossary Off
Versions: 1 2 3 4 5 6 7 8 9 10 11 12 13 14 15 16 17 18 19 20 21 22 23 24 25 26 27 28 29 30 31 32 33 34 35 36 37 38 39 40 41 42 43 44 45 46 47 48 49 50

000
ASUS45 KBOU 220207
RWRCO

WEATHER ROUNDUP FOR COLORADO
NATIONAL WEATHER SERVICE DENVER/BOULDER CO
700 PM MST SUN DEC 21 2014

NOTE: "FAIR" INDICATES FEW OR NO CLOUDS BELOW 12000 FEET WITH NO
SIGNIFICANT WEATHER AND/OR OBSTRUCTIONS TO VISIBILITY.

COZ001>005-013-030-031-220300-
...NORTHWEST COLORADO...

CITY           SKY/WX    TMP DP  RH WIND       PRES   REMARKS
CRAIG          CLOUDY    39  31  72 SW23G36   29.74R
HAYDEN         CLOUDY    37  28  70 W22       29.72S
MEEKER         LGT RAIN  34  32  92 CALM      29.82F
MOUNT WERNER   NOT AVBL
STEAMBOAT SPGS CLOUDY    35  31  87 W26G37    29.70F WCI  22
WALDEN         CLOUDY    32  30  93 NW12G18   29.65S VSB 1   WCI  23
$$

COZ006>008-011-220300-
...WEST CENTRAL VALLEYS...

CITY           SKY/WX    TMP DP  RH WIND       PRES   REMARKS
GRAND JUNCTION CLOUDY    34  33  96 CALM      29.93R
MONTROSE       CLOUDY    33  31  92 CALM      29.93S
EAGLE          NOT AVBL
RIFLE          CLOUDY    36  31  82 W14G24    29.85S
DELTA          MOCLDY    33  32  96 NE6       29.93R WCI  27
NUCLA          MOCLDY    34  32  93 CALM      29.99R
$$

COZ017>023-064>068-220300-
...SOUTHWEST COLORADO...

CITY           SKY/WX    TMP DP  RH WIND       PRES   REMARKS
DURANGO        CLOUDY    36  29  75 W14       29.93S
CORTEZ         CLOUDY    37  30  75 NE5       29.99R
PAGOSA SPRINGS LGT SNOW  30  30  99 CALM      29.95S
TELLURIDE      CLOUDY    32  31  96 W13G22    29.99S WCI  23
WOLF CREEK PAS LGT SNOW  18  18 100 MISG      29.92F VSB 3/4
$$

COZ009-010-012-014-032>034-037-058>063-220300-
...CENTRAL COLORADO...

CITY           SKY/WX    TMP DP  RH WIND       PRES   REMARKS
ASPEN          LGT SNOW  27  25  92 CALM      29.80F FOG
BUENA VISTA    FLURRIES  34  27  76 CALM      29.70S
COPPER MTN     CLOUDY    25  19  80 MISG      29.67F
BERTHOUD PASS  HVY SNOW  18  12  79 MISG      29.49F VSB<1/4
COTTONWOOD PAS LGT SNOW  32  27  80 NW24G36   29.70F WCI  19
GUNNISON       CLOUDY    34  28  80 W16       29.85R WCI  23
KREMMLING      FLURRIES  34  28  80 W18G37    29.70S WCI  23
LEADVILLE      LGT SNOW  24  22  91 NW15G30   29.73S VSB 3/4 WCI  11
MONARCH PASS   CLOUDY    21  19  93 MISG      29.84F
SALIDA         CLOUDY    41  27  57 SW16G23   29.78S
SUNLIGHT       SNOW     N/A N/A N/A SW3       29.82R VSB 1/2
WILKERSON PASS SNOW      23  21  93 W12G21    29.72F VSB 1/2 WCI  12
$$

COZ069>075-220300-
...SAN LUIS VALLEY/SANGRE DE CRISTO MOUNTAINS...

CITY           SKY/WX    TMP DP  RH WIND       PRES   REMARKS
ALAMOSA        CLOUDY    32  25  75 E7        29.79F WCI  26
LA VETA PASS   CLOUDY    27  23  86 S20G29    29.76S WCI  13
SAGUACHE       LGT SNOW  30  30 100 E6        29.80F WCI  24
$$

COZ035-036-038>040-220300-
...NORTHERN COLORADO FRONT RANGE...

CITY           SKY/WX    TMP DP  RH WIND       PRES   REMARKS
DENVER INTL AP MOCLDY    43  26  51 SW9       29.57R
DMNS CITY PARK   N/A     46  29  51 W3        29.58S
AURORA         MOCLDY    44  28  53 W12       29.58S
FRONT RANGE AP MOCLDY    45  30  57 W3G16     29.58R
ERIE MUNI ARPT   N/A     41  27  57 CALM      29.57R
BOULDER MUN AP CLOUDY    46  30  53 W14       29.57R
CENTENNIAL     MOCLDY    40  27  59 W6        29.59S
BROOMFIELD     CLOUDY    45  28  53 W3        29.58S
FORT COLLINS   MOCLDY    46  28  49 N10       29.55F
LONGMONT       DRIZZLE   45  30  56 S6        29.56S
$$

COZ041-046-047-076>085-087-088-220300-
...PIKES PEAK/PALMER DIVIDE AND SOUTHERN FOOTHILLS...

CITY           SKY/WX    TMP DP  RH WIND       PRES   REMARKS
COLO. SPRINGS  PTCLDY    44  25  47 NW14G24   29.60S
A. F. ACADEMY  PTCLDY    38  24  57 N7        29.61F
ELLICOTT       NOT AVBL
FALCON         PTCLDY    37  24  59 W10       29.62F
FORT CARSON    PTCLDY    40  24  51 E7        29.59S
LIMON          LGT RAIN  39  34  82 N16       29.60R
MONUMENT HILL  MOCLDY    32  27  80 W8        29.62S WCI  25
TRINIDAD       MOCLDY    48  25  40 NW8       29.62R
$$

COZ042>045-048>051-090-091-220300-
...NORTHEAST COLORADO...

CITY           SKY/WX    TMP DP  RH WIND       PRES   REMARKS
GREELEY ARPT   MOCLDY    39  28  65 N9        29.55R
AKRON          CLOUDY    40  32  73 W14       29.55R
BURLINGTON     CLOUDY    40  31  70 W12       29.57R
WRAY           CLOUDY    39  33  80 W7        29.52S
STERLING       CLOUDY    37  34  87 S3        29.53R
HOLYOKE        CLOUDY    37  32  81 W8        29.52R
FORT MORGAN    DRIZZLE   39  33  78 N14       29.56F
$$

COZ086-089-092>099-220300-
...SOUTHEAST COLORADO...

CITY           SKY/WX    TMP DP  RH WIND       PRES   REMARKS
PUEBLO         CLEAR     49  25  39 NW15      29.59R
LA JUNTA       CLOUDY    38  30  73 N8        29.58R
LAMAR          CLOUDY    38  30  73 SW5       29.55R
SPRINGFIELD      N/A     43  27  53 W10       29.57R
$$


USA.gov is the U.S. government's official web portal to all federal, state and local government web resources and services.